Weather History for KPIL - January, 2013

Change the Weather History Date:

Friday, January 4, 2013

  Actual Average Record
Temperature  
Mean Temperature 47 °F -  
Max Temperature 48 °F - - ()
Min Temperature 46 °F - - ()
Degree Days  
Heating Degree Days 18    
Moisture  
Dew Point 43 °F    
Average Humidity 84    
Maximum Humidity 93    
Minimum Humidity 64    
Precipitation  
Precipitation 0.05 in - - ()
Sea Level Pressure  
Sea Level Pressure 30.31 in    
Wind  
Wind Speed 17 mph (NW)    
Max Wind Speed 23 mph    
Max Gust Speed 30 mph    
Visibility 5 miles    
Events Rain    
T = Trace of Precipitation, MM = Missing Value Source: NWS Daily Summary

Daily Weather History Graph

Daily Weather History Graph

Search for Another Location

Airport or City:

Trip Planner

Search our weather history database for the weather conditions in past years. The results will help you decide how hot, cold, wet, or windy it might be!

Date:

Astronomy

Jan. 04, 2013 Rise Set
Actual Time 7:17 AM CST 5:51 PM CST
Civil Twilight 6:52 AM CST 6:16 PM CST
Nautical Twilight 6:23 AM CST 6:45 PM CST
Astronomical Twilight 5:55 AM CST 7:13 PM CST
Moon No Moon Rise 11:45 AM CST (1/4)
Length of Visible Light 11h 24m
Length of Day
10h 33m
Waning Gibbous, 55% of the Moon is Illuminated
Jan 4
Waning Gibbous
Jan 4
Last Quarter
Jan 11
New
Jan 18
First Quarter
Jan 26
Full

Hourly Weather History & Observations

Time (CST) Temp. Dew Point Humidity Pressure Visibility Wind Dir Wind Speed Gust Speed Precip Events Conditions
12:10 AM 48.2 °F 41.0 °F 76% 30.29 in 9.0 mi North 11.5 mph - 0.00 in Rain Light Rain
12:53 AM 48.9 °F 39.9 °F 71% 30.30 in 10.0 mi NW 13.8 mph - 0.00 in   Overcast
1:53 AM 48.0 °F 41.0 °F 77% 30.30 in 7.0 mi NNW 13.8 mph - 0.00 in Rain Light Rain
2:50 AM 48.2 °F 39.2 °F 71% 30.30 in 9.0 mi NW 12.7 mph - 0.00 in   Overcast
2:53 AM 48.9 °F 39.9 °F 71% 30.30 in 9.0 mi NW 13.8 mph - 0.00 in   Overcast
3:53 AM 48.9 °F 39.9 °F 71% 30.30 in 9.0 mi NNW 15.0 mph - N/A   Overcast
4:25 AM 48.2 °F 39.2 °F 71% 30.30 in 9.0 mi NNW 19.6 mph - N/A   Overcast
4:53 AM 48.0 °F 39.0 °F 71% 30.31 in 9.0 mi NNW 20.7 mph 27.6 mph N/A   Overcast
6:53 AM 48.9 °F 37.0 °F 64% 30.34 in 9.0 mi NNW 18.4 mph - N/A   Overcast
7:53 AM 48.0 °F 37.9 °F 68% 30.35 in 8.0 mi NW 18.4 mph - N/A   Overcast
8:53 AM 48.0 °F 41.0 °F 77% 30.37 in 6.0 mi NW 18.4 mph - N/A   Haze
9:01 AM 48.2 °F 42.8 °F 82% 30.37 in 6.0 mi NW 19.6 mph - N/A   Haze
9:53 AM 46.9 °F 43.0 °F 86% 30.38 in 5.0 mi NW 17.3 mph - N/A   Overcast
10:53 AM 48.0 °F 45.0 °F 89% 30.37 in 4.0 mi NW 17.3 mph - 0.00 in   Overcast
11:40 AM 48.2 °F 44.6 °F 87% 30.37 in 2.5 mi NW 17.3 mph - 0.00 in Rain Light Rain
11:53 AM 48.0 °F 45.0 °F 89% 30.36 in 2.0 mi NW 19.6 mph - 0.00 in Rain Light Rain
12:53 PM 48.9 °F 46.0 °F 90% 30.32 in 4.0 mi NW 20.7 mph - 0.00 in Rain Light Rain
1:53 PM 48.9 °F 46.9 °F 93% 30.30 in 3.0 mi NW 18.4 mph - 0.00 in Rain Light Rain
2:01 PM 48.2 °F 46.4 °F 93% 30.29 in 2.5 mi NW 18.4 mph - 0.00 in Rain Light Rain
2:53 PM 48.0 °F 46.0 °F 93% 30.27 in 2.5 mi NW 19.6 mph - 0.00 in Rain Light Rain
3:31 PM 48.2 °F 46.4 °F 93% 30.28 in 3.0 mi NNW 21.9 mph - 0.01 in Rain Light Rain
3:53 PM 48.0 °F 46.0 °F 93% 30.28 in 3.0 mi NW 19.6 mph - 0.01 in Rain Light Rain
4:22 PM 48.2 °F 46.4 °F 93% 30.29 in 2.5 mi NW 23.0 mph 29.9 mph 0.00 in   Overcast
5:26 PM 48.2 °F 46.4 °F 93% 30.28 in 3.0 mi NNW 20.7 mph 27.6 mph 0.00 in Rain Light Rain
5:53 PM 48.0 °F 45.0 °F 89% 30.28 in 4.0 mi NNW 18.4 mph - 0.00 in   Overcast
6:53 PM 48.0 °F 45.0 °F 89% 30.29 in 4.0 mi NNW 20.7 mph 29.9 mph N/A   Overcast
7:53 PM 46.9 °F 45.0 °F 93% 30.30 in 3.0 mi NNW 19.6 mph - 0.01 in   Overcast
8:53 PM 46.9 °F 45.0 °F 93% 30.30 in 5.0 mi NNW 19.6 mph - 0.01 in Rain Light Rain
9:53 PM 46.9 °F 45.0 °F 93% 30.30 in 4.0 mi NNW 17.3 mph - 0.00 in   Overcast
10:53 PM 46.9 °F 45.0 °F 93% 30.29 in 4.0 mi NNW 19.6 mph - 0.01 in   Overcast
11:53 PM 46.9 °F 45.0 °F 93% 30.29 in 3.0 mi NNW 18.4 mph 26.5 mph 0.01 in   Overcast